Location: Arroyo Grande
(40.2671°N, 4.2512°W)
Time: 07:55:50
(UTC+00:00)

Cosmos 2227 - Pass Details

Date: 03 February 2023
Orbit: 833 x 862 km, 71.0° (Epoch: 26 March)

Event Time Altitude Azimuth Distance (km) Brightness Sun altitude
Rises 17:54:37 0° 339° (NNW) 3,448 7.4 -3.9°
Reaches altitude 10° 17:57:07 10° 342° (NNW) 2,508 6.7 -4.3°
Maximum altitude 18:02:51 64° 64° (ENE) 950 4.3 -5.4°
Drops below altitude 10° 18:08:32 10° 146° (SE) 2,489 6.5 -6.4°
Sets 18:11:00 0° 149° (SSE) 3,419 7.2 -6.9°
